Location: Unspecified
(56.5167°N, 0.0000°E)
Time: 03:22:21
(UTC+02:00)

Cosmos 1674 - Visible Passes

Search period start: 30 August 2016 00:00
Search period end: 09 September 2016 00:00
Orbit: 499 x 526 km, 82.5° (Epoch: 29 August)

Date Brightness Start Highest point End Pass type
(mag) Time Alt. Az. Time Alt. Az. Time Alt. Az.
30 Aug 4.2 00:05:01 10° N 00:08:12 25° ENE 00:08:25 25° ENE visible
30 Aug 3.8 01:40:27 10° NNW 01:43:21 37° WNW 01:43:21 37° WNW visible
30 Aug 4.3 23:49:13 10° NNE 23:52:12 22° ENE 23:52:31 21° ENE visible
31 Aug 3.6 01:24:27 10° NNW 01:27:27 44° WNW 01:27:27 44° WNW visible
31 Aug 4.5 23:33:26 10° NNE 23:36:11 19° ENE 23:36:38 18° ENE visible
01 Sep 3.4 01:08:28 10° NNW 01:11:34 51° NW 01:11:34 51° NW visible
01 Sep 4.7 23:17:41 10° NNE 23:20:09 16° ENE 23:20:45 16° ENE visible
02 Sep 3.2 00:52:30 10° NNW 00:55:42 58° NW 00:55:42 58° NW visible
02 Sep 4.8 23:01:58 10° NNE 23:04:07 14° ENE 23:04:53 14° ENE visible
03 Sep 3.0 00:36:33 10° NNW 00:39:49 64° NNW 00:39:49 64° NNW visible
03 Sep 5.4 02:13:58 10° WNW 02:14:46 11° WNW 02:14:46 11° WNW visible
03 Sep 4.9 22:46:21 10° NNE 22:48:04 13° NE 22:49:01 12° ENE visible
04 Sep 2.9 00:20:37 10° N 00:23:57 65° NNE 00:23:57 65° NNE visible
04 Sep 5.3 01:57:32 10° NW 01:58:54 13° WNW 01:58:54 13° WNW visible
04 Sep 5.0 22:30:55 10° NE 22:32:00 11° NE 22:33:05 10° ENE visible
05 Sep 2.9 00:04:40 10° N 00:08:05 60° NE 00:08:05 60° NE visible
05 Sep 5.1 01:41:16 10° NW 01:43:02 16° WNW 01:43:02 16° WNW visible
05 Sep 3.0 23:48:45 10° N 23:52:14 53° NE 23:52:14 53° NE visible
06 Sep 4.9 01:25:05 10° NW 01:27:11 18° WNW 01:27:11 18° WNW visible
06 Sep 3.2 23:32:50 10° N 23:36:23 45° ENE 23:36:23 45° ENE visible
07 Sep 4.8 01:08:56 10° NW 01:11:20 21° WNW 01:11:20 21° WNW visible
07 Sep 3.4 23:16:56 10° N 23:20:32 38° ENE 23:20:33 38° ENE visible
08 Sep 4.5 00:52:51 10° NNW 00:55:29 25° WNW 00:55:29 25° WNW visible
08 Sep 3.6 23:01:02 10° N 23:04:32 33° ENE 23:04:43 33° ENE visible
